Location: Unspecified
(0.0000°N, 0.0000°E)
Time: 04:35:15
(UTC+02:00)

NATO 3D Rocket - Visible Passes

Search period start: 29 July 2014 00:00
Search period end: 08 August 2014 00:00
Orbit: 670 x 2297 km, 21.5° (Epoch: 26 July)

Date Brightness Start Highest point End Pass type
(mag) Time Alt. Az. Time Alt. Az. Time Alt. Az.
29 Jul 7.4 00:59:57 10° W 01:00:04 10° W 01:00:04 10° W visible
29 Jul 6.6 05:29:11 25° S 05:29:11 25° S 05:36:47 10° SE visible
29 Jul 6.2 07:25:57 10° SW 07:35:21 27° S 07:42:33 10° ESE visible
29 Jul 5.2 21:58:29 10° NW 22:07:11 65° NNE 22:10:47 47° E visible
30 Jul 6.5 00:02:08 10° WNW 00:06:18 30° W 00:06:18 30° W visible
30 Jul 7.0 04:35:28 18° SSE 04:35:28 18° SSE 04:38:51 10° SE visible
30 Jul 6.4 06:31:00 19° SSW 06:36:49 27° S 06:45:01 10° ESE visible
30 Jul 5.3 21:01:59 10° NW 21:09:23 49° NNE 21:17:03 19° E visible
30 Jul 5.4 23:04:48 10° WNW 23:12:34 65° W 23:12:34 65° W visible
31 Jul 6.5 05:37:17 27° S 05:37:55 27° S 05:47:09 10° SE visible
31 Jul 6.1 07:34:37 10° SW 07:45:18 35° SSE 07:53:12 10° ESE visible
31 Jul 4.9 22:07:52 10° WNW 22:16:21 87° NNE 22:18:53 60° ESE visible
01 Aug 6.9 00:12:03 10° W 00:14:24 20° W 00:14:24 20° W visible
01 Aug 6.9 04:43:34 23° SSE 04:43:34 23° SSE 04:48:56 10° SE visible
01 Aug 6.3 06:39:05 19° SW 06:46:47 33° S 06:55:39 10° ESE visible
01 Aug 4.8 21:11:17 10° WNW 21:18:36 69° NNE 21:25:13 25° ESE visible
01 Aug 5.8 23:14:35 10° W 23:20:45 45° WSW 23:20:45 45° WSW visible
02 Aug 7.5 03:49:51 11° SE 03:49:51 11° SE 03:50:21 10° SE visible
02 Aug 6.4 05:45:23 29° S 05:47:55 31° S 05:57:43 10° ESE visible
02 Aug 5.8 07:43:11 10° SW 07:55:02 48° SSE 08:03:32 10° E visible
02 Aug 5.0 22:17:32 10° WNW 22:25:40 69° SSW 22:27:07 62° SSE visible
03 Aug 7.2 00:22:18 10° WSW 00:22:39 11° WSW 00:22:39 11° WSW visible
03 Aug 6.7 04:51:41 28° SSE 04:51:41 28° SSE 04:59:20 10° ESE visible
03 Aug 6.1 06:47:12 18° SW 06:56:34 42° SSE 07:06:06 10° E visible
03 Aug 4.6 21:20:48 10° WNW 21:27:54 84° SSW 21:33:31 30° ESE visible
03 Aug 6.2 23:24:42 10° W 23:29:03 30° WSW 23:29:03 30° WSW visible
04 Aug 7.3 03:57:59 16° SE 03:57:59 16° SE 04:00:30 10° ESE visible
04 Aug 6.3 05:53:31 32° SSW 05:57:44 38° SSE 06:08:12 10° ESE visible
04 Aug 4.4 20:24:21 10° WNW 20:30:30 75° NNE 20:39:36 10° ESE visible
04 Aug 5.3 22:27:30 10° W 22:35:11 49° SSW 22:35:28 49° SSW visible
05 Aug 6.5 04:59:51 34° SSE 04:59:51 34° SSE 05:09:49 10° ESE visible
05 Aug 5.9 06:55:23 17° SW 07:06:06 56° SSE 07:16:14 10° E visible
05 Aug 4.9 21:30:37 10° W 21:37:23 58° SSW 21:41:55 31° SE visible
05 Aug 6.6 23:35:08 10° WSW 23:37:27 19° WSW 23:37:27 19° WSW visible
06 Aug 7.1 04:06:12 22° SE 04:06:12 22° SE 04:10:54 10° ESE visible
06 Aug 6.1 06:01:44 34° SSW 06:07:19 48° SSE 06:18:28 10° E visible
06 Aug 4.4 20:34:00 10° WNW 20:39:57 72° SSW 20:48:22 11° ESE visible
06 Aug 5.7 22:37:50 10° WSW 22:43:54 34° SSW 22:43:54 34° SSW visible
07 Aug 6.2 05:08:06 42° SSE 05:08:17 42° SSE 05:20:10 10° E visible
07 Aug 5.7 07:03:38 16° WSW 07:15:24 73° SSE 07:26:02 10° ENE visible
07 Aug 5.3 21:40:48 10° W 21:47:05 39° SSW 21:50:22 29° SSE visible
07 Aug 7.0 23:45:49 10° WSW 23:45:55 10° WSW 23:45:55 10° WSW visible
